Powrót do katalogu

COSMOS 1555

GLONASS

AktywnyNawigacjaMEO
NORAD 14978·PAYLOAD·🇷🇺 Russia

Wystrzelony May 19, 1984 z Baikonur Cosmodrome

Loading…

Następne Przeloty (najbliższe 24 godziny)

TLE

ŚwieżeSource: Space-Track

Epoka: Sep 14, 2026, 04:33 UTC

1 14978U 84047B   26257.18980749 -.00000070  00000-0  00000-0 0  9998
2 14978  66.3428 325.7163 0013638 181.5569 181.2250  2.13101448301404

Śledź COSMOS 1555 w czasie rzeczywistym z AllMySat

Download on the App Store